#timestamp,LO_Frequency,Hit,StdDev 
1637467215.8,286047001.2,N
1637467235.7,286046998.7,N
1637467255.5,286047001.1,N
1637467275.4,286047001.1,N
1637467295.2,286046996.5,N
1637467315.0,286046999.6,N
1637467315.9,286046999.6,N
1637467335.8,286046998.0,N
1637467355.6,286046997.7,N
1637467375.4,286046997.4,N
1637467395.3,286046997.7,N
1637467415.1,286046996.5,N
1637467435.9,286046997.0,N
1637467455.7,286046997.1,N
1637467475.5,286046997.0,N
1637467495.4,286046997.2,N
1637467515.2,286046997.3,N
1637467535.0,286046997.0,N
1637467535.9,286046997.0,N
1637467555.8,286046997.7,N
1637467575.6,286046996.8,N
1637467595.5,286046996.7,N
1637467615.3,286046996.9,N
1637467635.1,286046998.8,N
1637467655.9,286046997.0,N
1637467675.7,286046995.4,Y
1637467695.6,286046997.5,P
1637467715.4,286046995.3,P
1637467735.2,286046997.6,N
1637467755.1,286046996.4,Y
1637467756.0,286046996.4,P
1637467775.8,286046996.7,P
1637467795.7,286046999.4,N
1637467815.5,286046997.6,N
1637467835.3,286046996.7,Y
1637467855.2,286047001.0,P
1637467875.0,286047002.5,N
1637467875.9,286047002.5,N
1637467895.8,286047002.0,N
1637467915.6,286047003.7,N
1637467935.4,286047003.1,N
1637467955.3,286047003.2,N
1637467975.1,286047004.0,N
1637467995.8,286047003.5,N
1637468015.7,286047003.5,N
1637468035.5,286047004.1,N
1637468055.4,286047003.3,N
1637468075.2,286047003.2,N
1637468095.0,286047005.1,Y
1637468095.9,286047005.1,P
1637468115.8,286047002.7,N
1637468135.6,286047000.1,N
1637468155.4,286047004.4,N
1637468175.3,286047001.5,N
1637468195.1,286047003.7,N
1637468215.9,286047004.0,N
1637468235.7,286047001.9,N
1637468255.5,286047002.5,N
1637468275.4,286047000.1,N
1637468295.2,286047001.1,N
1637468315.0,286047001.1,N
1637468316.0,286047001.1,N
1637468335.8,286047000.2,N
1637468355.6,286046999.9,N
1637468375.5,286047002.8,N
1637468395.3,286047002.3,N
1637468415.1,286047000.6,N
1637468435.9,286047000.4,N
1637468455.7,286046998.7,N
1637468475.6,286046998.9,N
1637468495.4,286046999.6,N
1637468515.2,286046997.2,N
1637468535.1,286046997.8,N
1637468536.0,286046997.8,N
1637468555.8,286046997.1,N
1637468575.6,286046995.5,N
1637468595.5,286046995.4,N
1637468615.3,286046997.6,N
1637468635.2,286046997.4,N
1637468655.9,286046997.3,N
1637468675.7,286046996.9,N
1637468695.6,286046996.7,N
1637468715.4,286046996.5,N
1637468735.2,286046997.7,N
1637468755.1,286046996.8,N
1637468756.0,286046996.8,N
1637468775.8,286046999.6,N
1637468795.7,286046999.1,N
1637468815.5,286046998.2,N
1637468835.3,286046997.0,N
1637468855.2,286046996.7,N
1637468875.0,286046996.6,N
1637468875.9,286046996.6,N
1637468895.7,286046998.1,N
1637468915.6,286046996.5,N
1637468935.4,286046996.9,N
1637468955.3,286046997.2,N
1637468975.1,286046996.8,N
1637468976.0,286046996.8,Y
1637468995.8,286046998.6,P
1637469015.7,286046999.3,N
1637469035.5,286046999.3,N
1637469055.4,286046997.0,Y
1637469075.2,286046998.8,P
1637469095.0,286047000.5,P
1637469095.9,286047000.5,N
1637469115.8,286046998.3,N
1637469135.6,286046998.1,N
1637469155.4,286047001.0,N
1637469175.3,286047000.9,N
1637469195.1,286046998.1,N
1637469215.9,286046998.5,N
1637469235.7,286047000.6,N
1637469255.5,286047000.0,N
1637469275.4,286047002.3,N
1637469295.2,286047002.3,N
1637469315.0,286046999.9,N
1637469315.9,286046999.9,N
1637469335.8,286046998.6,N
1637469355.6,286046998.3,N
1637469375.5,286046998.9,N
1637469395.3,286046996.6,N
1637469415.1,286046996.5,N
1637469435.9,286046998.3,N
1637469455.7,286046998.7,N
1637469475.6,286046999.1,N
1637469495.4,286046999.3,N
1637469515.2,286046999.3,N
1637469535.1,286046999.2,N
1637469536.0,286046999.2,N
1637469555.8,286046999.3,N
1637469575.6,286046998.2,N
1637469595.5,286046998.1,N
1637469615.3,286046998.6,N
1637469635.2,286046999.6,N
1637469655.9,286046999.1,N
1637469675.7,286046999.2,N
1637469695.6,286046996.8,N
1637469715.4,286046996.8,N
1637469735.2,286046996.9,N
1637469755.1,286046999.5,N
1637469756.0,286046999.5,N
1637469775.8,286046996.6,N
1637469795.7,286046998.5,N
1637469815.5,286047000.8,N
1637469835.3,286046999.1,N
1637469855.2,286046999.0,N
1637469875.0,286046998.9,N
1637469875.9,286046998.9,N
1637469895.8,286046999.0,N
1637469915.6,286046998.7,N
1637469935.4,286047000.9,N
1637469955.3,286047000.1,N
1637469975.1,286047002.4,N
1637469995.8,286046999.8,N
1637470015.7,286047002.3,N
1637470035.5,286047002.5,N
1637470055.4,286046999.7,N
1637470075.2,286047000.1,N
1637470095.0,286047002.6,N
1637470095.9,286047002.6,N
1637470115.8,286047002.2,N
1637470135.6,286047001.6,N
1637470155.5,286047002.0,N
1637470175.3,286047002.7,N
1637470195.1,286047000.1,N
1637470215.9,286046999.9,N
1637470235.7,286047000.0,N
1637470255.5,286047000.9,N
1637470275.4,286047000.6,N
1637470295.2,286047000.2,N
1637470315.1,286046999.7,N
1637470316.0,286046999.7,N
1637470335.8,286047000.1,N
1637470355.6,286047000.0,N
1637470375.5,286046999.9,N
1637470395.3,286047000.9,N
1637470415.1,286047000.2,N
1637470435.9,286047000.2,N
1637470455.7,286047002.1,N
1637470475.6,286046999.7,N
1637470495.4,286047001.9,N
1637470515.2,286047002.8,N
1637470535.1,286047002.8,N
1637470536.0,286047002.8,N
1637470555.8,286047000.2,N
1637470575.6,286046999.7,N
1637470595.5,286046999.8,N
1637470615.3,286047002.8,N
1637470665.2,286047000.3,E
1637470675.1,286047002.4,N
1637470695.8,286047000.0,P
1637470715.7,286047002.3,N
1637470735.5,286047002.2,N
1637470755.4,286046999.7,N
1637470775.2,286046999.9,N
1637470795.0,286046999.9,N
1637470795.9,286046999.9,N
